Tracking 29892 objects as of 21-Nov-2024
HD Live streaming from Space Station
objects crossing your sky now

COSMOS 249 DEB

Track COSMOS 249 DEB now!
10-day predictions


NORAD ID: 6764
Int'l Code: 1968-091CK
Perigee: 932.5 km
Apogee: 2,111.9 km
Inclination: 62.3 °
Period: 116.3 minutes
Semi major axis: 7893 km
RCS: 0.0142 m2 (small)
Launch date: October 20, 1968
Source: Commonwealth of Independent States (former USSR) (CIS)
Launch site: TYURATAM MISSILE AND SPACE COMPLEX (TTMTR)

Note: This is SATELLITE DEBRIS
Your satellite tracking list
Your tracking list is empty




NASA's NSSDC Master Catalog

Two Line Element Set (TLE):
1 06764U 68091CK  24324.25106722 -.00000019  00000-0  15516-3 0  9999
2 06764  62.3482 254.5545 0747058 249.3902 270.9061 12.38003991653982
Source of the keplerian elements: AFSPC